Theta_e
315 315 316 315 315 314 314 314 313 313 313 314 314 315 316 316 313 310 304 314 321 325 323 315 314 315 321 315 315 314 301 298 301 303 305 310 306 309 310 306 305 306 317 323 337
316 316 315 315 314 314 313 313 313 312 312 312 313 314 314 315 307 302 312 321 326 328 318 309 308 315 313 311 310 305 299 301 308 308 305 309 308 307 305 305 303 305 319 326 333
314 314 314 315 314 313 313 313 312 312 311 311 312 313 314 312 301 300 317 321 326 327 319 313 313 314 309 309 307 304 299 306 308 307 306 307 307 308 303 302 304 304 309 324 326
314 315 315 315 315 313 313 312 312 311 310 311 311 312 312 308 288 308 319 321 328 323 316 314 306 307 304 302 307 299 304 305 307 307 305 304 308 304 304 304 309 311 312 316 323
315 315 315 314 314 313 312 311 311 310 310 310 311 311 306 298 298 309 321 320 322 320 312 310 303 306 301 303 304 301 302 304 306 306 305 306 304 302 303 307 310 312 311 309 308
315 314 314 313 313 312 311 309 309 309 310 309 310 308 302 292 307 309 315 317 318 317 313 311 305 308 304 302 301 303 304 304 304 305 306 302 302 303 304 306 308 308 306 307 308
315 314 312 312 312 310 309 308 309 309 308 309 308 306 299 296 308 314 313 313 317 317 311 312 310 307 307 303 306 304 299 301 302 303 303 305 299 300 305 306 306 305 305 307 308
314 313 312 312 311 310 308 308 308 309 309 309 308 304 294 306 307 308 313 311 315 319 315 313 312 308 306 307 303 299 299 293 300 302 303 302 292 302 306 304 304 303 303 304 307
313 313 312 312 310 309 307 308 309 310 309 308 303 300 292 310 302 305 307 308 312 316 316 314 313 306 305 298 295 296 289 292 296 302 301 299 293 301 305 304 302 302 303 303 304
313 312 311 311 310 309 307 309 307 307 307 306 303 294 298 297 303 304 311 312 309 311 308 307 304 299 298 295 287 289 289 292 292 298 299 297 295 299 301 300 300 300 300 301 303
312 312 311 310 309 308 307 305 298 296 299 293 294 294 297 302 308 305 310 308 310 305 297 302 295 291 295 297 295 294 292 290 295 299 296 295 296 298 300 300 299 300 300 301 302
311 311 311 310 309 310 307 297 297 298 290 297 297 296 301 303 297 302 310 302 302 295 299 296 291 297 300 299 296 292 290 290 294 297 296 294 293 296 299 299 301 299 299 300 301
311 310 311 310 309 308 301 300 306 304 292 294 297 297 297 300 296 299 305 303 298 295 296 292 295 299 297 296 293 291 290 290 290 295 295 292 289 293 297 297 298 298 296 298 298
310 310 311 309 304 304 298 304 306 304 286 288 292 296 299 296 291 306 307 303 298 294 296 295 299 297 296 295 295 289 294 294 294 290 284 293 279 289 293 293 295 295 295 296 299
309 309 311 309 304 300 302 306 306 301 275 290 291 304 300 296 297 298 307 303 295 295 296 291 295 295 294 295 297 293 297 295 294 291 288 288 283 286 291 290 292 295 297 300 301
308 309 310 307 306 304 307 306 302 284 277 286 293 294 294 298 297 299 301 305 303 295 293 293 298 298 297 298 298 299 294 293 292 290 282 288 285 283 287 290 292 295 298 300 301
308 309 307 307 301 308 307 299 284 280 289 287 290 292 293 292 292 295 295 294 291 286 287 288 288 295 297 293 297 295 289 280 280 279 279 288 285 286 291 293 294 295 297 300 302
308 307 308 306 309 308 303 291 279 286 286 294 294 294 290 293 293 291 291 291 295 294 288 285 281 289 295 293 290 290 289 281 276 278 280 285 280 285 292 295 297 299 299 301 301
309 308 306 309 309 307 296 284 284 287 289 292 293 290 290 294 292 293 293 292 295 296 288 286 284 292 294 297 296 289 286 289 282 281 279 281 284 288 292 293 295 297 299 299 302
303 305 306 310 309 301 293 288 291 295 296 295 288 291 287 291 291 291 292 295 293 296 296 291 283 290 292 296 294 292 295 285 281 274 276 280 281 281 286 288 293 296 297 300 303
304 300 304 309 307 298 286 288 294 298 297 293 291 290 290 290 292 291 292 294 296 294 296 295 290 287 291 289 288 288 288 289 286 282 276 275 278 286 288 290 292 294 297 299 302
303 296 306 308 297 300 291 294 297 296 298 296 296 294 292 292 291 290 291 293 297 296 292 294 290 285 288 292 294 292 291 290 283 282 279 278 280 290 291 293 294 293 299 301 303
296 298 307 306 293 294 296 295 297 295 295 294 293 295 295 292 288 291 292 297 297 296 292 293 287 281 282 286 290 288 291 291 286 284 279 277 279 291 292 293 294 293 299 300 302
297 292 297 303 299 295 293 293 293 298 296 296 294 295 293 291 292 290 291 295 296 296 297 296 288 283 278 282 287 283 288 289 284 277 281 281 282 286 290 291 294 298 298 300 300
297 291 292 289 295 293 295 295 292 292 296 296 293 293 292 289 290 290 292 292 295 295 294 293 281 279 286 289 287 286 287 288 280 285 279 284 285 288 290 291 295 297 299 301 299
291 289 292 290 294 293 293 293 292 294 294 292 291 294 293 290 290 289 292 291 291 292 292 293 281 283 281 287 286 282 286 287 287 287 286 287 286 291 293 294 295 298 300 299 298
294 296 293 291 293 291 291 292 294 295 296 297 295 293 292 294 296 295 295 294 293 291 289 289 284 281 278 284 283 280 285 287 288 289 288 284 288 292 293 296 295 297 299 297 295
Wind_Speed
20 20 19 18 17 16 15 15 14 14 14 13 13 14 12 10 6 10 12 7 13 4 6 14 10 10 8 5 7 10 8 12 21 16 13 3 6 6 4 5 2 4 10 7 11
20 21 21 19 16 17 14 16 15 13 14 12 13 12 11 9 11 18 14 16 17 13 8 15 14 11 4 11 6 10 11 17 20 13 9 5 1 9 5 6 5 4 9 6 9
23 22 21 20 20 17 16 15 15 14 13 13 12 12 8 7 12 22 23 20 20 20 13 13 13 12 9 6 12 9 12 15 15 2 7 3 9 3 6 5 8 9 10 10 8
24 24 23 22 19 17 15 13 13 13 13 12 11 10 6 9 8 11 27 27 22 18 15 9 17 14 9 12 16 11 18 15 10 4 2 2 2 5 7 3 9 12 9 6 7
25 26 24 23 22 16 12 12 11 10 11 11 10 6 4 8 17 17 10 26 21 18 18 15 19 15 14 16 11 17 12 18 4 6 3 4 3 7 5 2 6 8 6 4 3
26 26 25 23 19 11 10 9 8 9 10 7 7 3 6 11 10 17 1 9 20 21 18 14 17 15 8 11 12 10 15 7 8 6 1 3 4 9 7 2 7 2 2 6 5
26 26 25 22 18 6 7 6 7 7 6 6 2 6 9 14 7 9 4 5 18 20 18 16 15 14 5 7 11 5 6 8 4 8 3 2 9 14 7 4 7 7 7 7 7
27 27 28 24 13 4 4 5 6 7 6 6 4 6 6 10 14 5 5 10 10 18 15 16 10 3 2 2 5 7 3 9 5 10 6 9 6 14 10 8 9 7 7 8 9
26 27 27 18 8 2 1 5 9 10 6 4 4 5 4 6 12 13 8 10 10 17 15 10 3 3 6 6 5 7 7 14 9 9 6 11 3 17 13 13 10 9 10 8 7
24 24 23 19 11 5 2 7 3 1 5 7 4 5 5 4 7 7 8 11 11 18 9 8 4 5 9 9 11 15 11 17 13 13 14 10 10 7 4 4 8 8 7 5 4
22 22 19 15 12 8 7 4 3 2 3 1 4 6 4 9 1 2 7 6 15 13 9 10 6 15 17 16 10 11 13 13 14 8 9 12 11 10 7 7 7 8 7 7 6
22 21 17 13 11 13 7 3 3 3 4 2 5 2 4 3 3 7 7 7 10 18 17 8 9 11 12 14 13 2 6 17 4 9 6 6 9 8 8 7 8 7 8 5 5
21 20 18 18 11 7 6 6 5 5 4 5 7 5 4 7 7 2 3 6 10 14 13 8 8 12 12 12 13 5 7 8 6 6 2 3 7 9 7 0 2 2 3 5 5
21 20 18 15 7 1 2 6 5 6 1 7 5 4 4 6 7 3 5 3 3 15 10 5 5 10 10 17 14 8 6 5 12 6 3 9 5 13 8 5 4 5 4 5 5
21 18 15 10 10 2 2 3 2 3 2 9 5 4 2 8 12 5 7 2 7 9 4 2 6 11 9 14 10 3 9 5 4 5 4 7 2 4 11 7 7 7 6 5 5
22 15 11 4 4 3 2 5 4 1 6 3 2 3 2 8 6 2 5 4 7 9 13 5 4 1 2 2 6 8 11 8 4 1 2 7 7 5 8 11 8 7 8 7 6
23 12 4 5 3 2 4 2 0 6 1 7 5 4 4 7 7 5 3 5 4 6 3 3 3 4 2 9 4 8 8 3 1 1 4 3 4 7 9 12 9 8 8 7 6
22 7 5 3 3 2 2 2 7 2 3 4 1 9 6 3 4 6 4 5 1 7 4 3 2 3 5 1 6 2 5 4 5 5 4 3 6 5 7 10 9 8 8 7 5
20 4 2 4 3 1 4 4 3 2 5 3 4 3 3 6 4 2 6 4 2 5 4 4 3 2 2 3 4 3 2 3 4 3 4 6 3 3 6 9 8 7 7 8 6
4 2 2 6 5 1 2 3 3 3 4 5 1 2 4 4 3 2 2 1 6 5 7 4 5 3 0 2 6 2 2 1 1 2 4 5 7 5 10 9 9 8 8 7 6
4 3 3 4 4 3 2 2 3 2 3 5 6 2 5 4 2 3 5 2 2 3 4 6 3 4 6 6 6 1 2 3 2 2 2 2 2 1 11 9 9 7 6 5 6
4 2 3 4 1 1 2 3 1 2 3 1 2 5 3 4 3 3 7 6 4 4 4 3 5 3 2 3 2 5 6 5 3 3 1 3 4 5 9 9 8 5 7 6 6
5 2 3 3 2 1 1 2 3 2 1 1 2 4 3 1 2 4 6 1 2 4 2 5 3 5 2 1 1 3 4 2 6 3 4 3 3 3 8 7 6 6 5 5 7
4 3 5 3 2 5 1 4 3 1 1 2 3 2 3 2 2 4 5 2 2 4 4 4 2 2 3 2 3 4 6 6 6 3 4 5 4 3 6 6 7 7 6 6 7
3 3 2 4 3 7 5 6 4 2 2 2 3 5 4 4 4 4 7 5 4 4 1 3 3 3 3 5 4 3 5 7 6 6 5 2 3 12 9 8 5 6 5 6 7
4 4 4 5 8 5 2 2 5 2 2 3 3 2 2 2 2 4 5 6 5 5 4 2 3 3 2 6 4 3 7 7 8 10 10 11 8 4 5 4 5 5 6 4 6
5 5 3 6 4 4 4 8 7 4 3 4 7 2 4 7 7 6 6 5 3 7 5 5 5 2 1 4 4 7 15 16 10 9 12 11 9 2 4 5 4 4 5 5 5
Wind_Direction
326 323 323 322 317 310 303 297 292 296 295 291 290 283 282 253 270 235 235 228 225 183 175 179 204 225 248 225 207 181 174 251 250 245 249 274 142 117 29 288 86 152 77 104 103
329 327 321 313 313 307 305 295 295 296 297 292 299 285 275 251 260 255 239 214 233 188 183 184 187 197 214 186 211 207 213 214 236 244 273 329 34 146 128 250 265 177 108 111 122
327 323 319 322 314 310 306 294 292 293 293 292 286 278 275 254 275 263 239 210 216 225 212 192 185 189 208 179 207 224 231 225 243 350 3 286 150 300 161 240 221 181 167 137 134
326 326 319 313 303 295 301 295 290 290 295 291 282 274 249 226 227 360 193 193 199 201 207 198 186 185 194 202 205 213 221 259 257 94 34 352 24 241 253 192 359 61 76 119 163
329 327 325 319 306 292 290 288 293 293 293 284 272 260 204 222 240 287 336 187 187 191 203 202 184 186 199 204 204 219 245 218 221 67 323 310 274 291 263 243 36 75 81 343 306
334 334 332 326 312 305 285 298 305 298 310 297 270 213 233 237 245 257 38 224 192 190 205 208 191 186 203 187 212 218 233 267 154 133 294 216 233 247 261 228 153 205 247 257 253
337 342 335 330 317 303 292 304 319 310 306 310 260 208 233 234 286 20 135 250 203 188 194 196 210 188 210 222 202 62 202 265 218 142 170 197 255 246 238 263 261 227 208 238 256
347 345 339 332 316 271 283 306 305 290 282 285 261 212 255 237 247 253 350 278 253 199 207 192 206 209 122 248 184 188 229 193 217 171 172 172 245 228 235 233 259 241 234 224 221
349 353 349 346 348 187 231 292 289 285 269 228 211 214 244 220 223 241 132 241 229 190 204 209 183 218 216 184 165 196 183 198 192 191 195 196 229 244 216 211 229 242 242 237 244
353 357 359 14 43 93 301 293 318 213 210 206 243 216 254 296 207 179 169 236 208 168 177 157 164 175 191 172 187 186 215 199 203 193 193 190 239 280 166 185 216 254 250 237 242
355 354 355 8 16 352 311 238 243 150 243 166 288 257 304 350 273 206 224 216 168 158 155 182 165 194 187 197 202 183 199 237 203 162 184 224 228 230 234 190 228 248 263 273 248
353 350 351 335 333 322 291 28 56 257 307 14 345 264 6 1 211 199 173 189 170 161 135 153 204 189 190 207 226 123 247 218 128 141 179 201 243 245 223 200 212 240 255 262 317
350 347 347 332 305 304 48 21 337 340 247 62 43 358 5 356 329 308 158 131 186 148 148 145 153 178 208 228 216 193 259 187 154 125 346 0 278 220 233 20 46 320 283 307 310
347 344 334 335 288 333 61 339 9 342 266 8 40 58 132 77 301 41 10 266 103 154 164 151 118 161 200 228 214 188 237 313 126 138 208 165 268 215 179 187 193 194 189 149 95
343 339 325 333 309 313 46 319 275 218 68 358 338 338 208 216 139 14 262 101 107 92 119 104 147 168 226 206 211 219 126 93 119 203 58 192 259 233 131 196 195 170 133 106 86
339 333 327 293 249 59 304 319 287 266 50 315 234 303 323 78 62 118 15 36 90 65 48 36 14 90 303 59 275 125 94 76 37 17 220 214 191 210 181 194 171 151 161 164 152
335 323 294 327 355 77 338 268 144 30 305 351 20 358 30 53 52 38 118 109 114 123 109 27 5 337 309 102 264 130 135 115 156 208 227 19 173 274 186 166 153 157 155 168 163
329 325 187 240 98 323 294 240 62 49 1 270 337 83 75 171 96 141 105 97 97 61 110 147 166 329 347 191 176 219 199 144 200 189 158 65 226 300 115 124 130 128 146 131 201
314 169 185 154 156 347 269 43 79 100 209 294 270 59 89 84 96 144 113 92 154 158 124 160 90 106 268 341 357 200 142 41 312 240 105 188 187 348 114 124 132 167 155 192 153
303 259 109 114 138 148 301 87 97 159 271 263 65 276 112 126 121 167 111 103 128 131 209 146 111 72 60 80 6 285 189 148 303 185 224 202 174 221 177 186 163 154 191 157 155
268 286 134 132 133 215 55 120 128 194 314 333 7 65 98 114 41 73 75 81 74 138 262 185 94 139 185 198 159 154 145 208 335 164 219 139 246 61 175 171 164 151 133 148 144
293 301 157 175 235 246 163 203 231 138 168 230 317 343 140 152 127 80 96 56 43 176 124 9 104 137 139 62 119 261 201 166 182 223 209 170 276 317 141 151 133 131 157 158 126
315 288 181 212 343 64 151 196 284 208 92 158 110 326 335 124 70 97 88 318 12 8 57 160 138 120 158 194 186 245 241 282 83 53 210 135 253 39 142 147 142 200 156 157 134
298 342 332 242 192 312 243 205 211 97 314 323 109 183 186 153 307 131 118 92 349 71 356 338 101 106 154 144 113 193 219 198 122 131 196 226 147 189 140 171 198 169 165 123 116
13 54 352 325 36 335 319 343 278 233 211 284 197 264 217 149 172 156 110 142 182 179 131 50 118 91 339 105 116 207 214 206 171 223 164 328 242 183 181 214 129 131 155 136 134
7 359 353 288 284 286 207 207 319 33 297 196 263 191 227 310 18 144 167 177 177 181 153 89 135 128 264 175 202 230 247 232 217 220 252 276 279 311 265 126 137 164 123 145 130
6 339 300 290 311 287 18 358 14 335 145 293 312 237 234 59 24 343 40 0 57 150 182 134 126 128 231 45 302 280 221 210 202 195 207 217 223 296 139 173 152 108 148 138 112